sat.trackr.live / text

‹ back to catalog

STARLINK-35336

NORAD 66006 · 2025-232B

PAYLOAD ACTIVE UNKNOWN

§ Identity

Operator
Country
US
Launch date
2025-10-16
Launch site
AFETR
Launch vehicle
Mass (kg)
RCS (m²)

Purposes: comms

External: N2YO · Heavens-Above · Gunter

§ Orbital elements

Epoch: 2026-05-25T04:34:39.071136Z

Period
94.10 min
Inclination
53.1562°
Eccentricity
0.0000974
Mean motion
15.30208613 rev/d
Perigee alt
474.5 km
Apogee alt
475.9 km
Semi-major
6,853.3 km
B*
3.1007e-4
RAAN
108.1821°
Arg perigee
76.2650°
Mean anomaly
283.8459°
Rev number
3,514

§ Raw data

STARLINK-353361 66006U 25232B   26145.19072999  .00008838  00000+0  31007-3 0  99962 66006  53.1562 108.1821 0000974  76.2650 283.8459 15.30208613 35140

JSON: /api/v1/satellites/66006 · /tle

For live sub-satellite position, see the globe view (requires WebGL).

§ Visibility from observer

Set your observer location to see the next 7 days of passes ≥ 10°. The values pass through the URL so the page stays shareable.

No JS? Fill the form by hand. The geolocation button needs JavaScript.